| time (UTC) | temp F | wind direction | speed MPH | gust MPH | rain 1hr in | rain 24hr in | rain mn in | humidity % | barometer mb |
| 20260509203520 | 61 | 300 | 12.0 | 23.0 | 0.00 | 0.00 | 0.00 | 39 | 1003.2 |
| 20260509203019 | 61 | 304 | 11.0 | 19.0 | 0.00 | 0.00 | 0.00 | 40 | 1003.0 |
| 20260509202518 | 61 | 261 | 11.0 | 21.0 | 0.00 | 0.00 | 0.00 | 39 | 1003.2 |
| 20260509202018 | 61 | 292 | 14.0 | 24.0 | 0.00 | 0.00 | 0.00 | 42 | 1003.1 |
| 20260509201518 | 61 | 322 | 17.0 | 24.0 | 0.00 | 0.00 | 0.00 | 40 | 1003.2 |
| 20260509201017 | 61 | 264 | 9.0 | 21.0 | 0.00 | 0.00 | 0.00 | 41 | 1003.1 |
| 20260509200521 | 60 | 329 | 8.0 | 18.0 | 0.00 | 0.00 | 0.00 | 43 | 1003.2 |
| 20260509200017 | 61 | 328 | 12.0 | 18.0 | 0.00 | 0.00 | 0.00 | 41 | 1003.3 |
| 20260509195519 | 61 | 355 | 13.0 | 20.0 | 0.00 | 0.00 | 0.00 | 42 | 1003.3 |
| 20260509195120 | 60 | 321 | 10.0 | 19.0 | 0.00 | 0.00 | 0.00 | 43 | 1003.2 |
| 20260509194521 | 60 | 290 | 13.0 | 19.0 | 0.00 | 0.00 | 0.00 | 42 | 1003.3 |
| 20260509194017 | 60 | 289 | 8.0 | 21.0 | 0.00 | 0.00 | 0.00 | 43 | 1003.3 |
| 20260509193517 | 60 | 272 | 13.0 | 21.0 | 0.00 | 0.00 | 0.00 | 43 | 1003.4 |
| 20260509193025 | 60 | 293 | 13.0 | 18.0 | 0.00 | 0.00 | 0.00 | 43 | 1003.3 |
| 20260509192516 | 59 | 24 | 8.0 | 16.0 | 0.00 | 0.00 | 0.00 | 43 | 1003.3 |
| 20260509192017 | 59 | 360 | 10.0 | 16.0 | 0.00 | 0.00 | 0.00 | 43 | 1003.3 |
| 20260509191521 | 60 | 316 | 11.0 | 15.0 | 0.00 | 0.00 | 0.00 | 42 | 1003.3 |
| 20260509191016 | 59 | 333 | 9.0 | 18.0 | 0.00 | 0.00 | 0.00 | 43 | 1003.3 |
| 20260509190516 | 59 | 313 | 8.0 | 20.0 | 0.00 | 0.00 | 0.00 | 42 | 1003.4 |
| 20260509190016 | 58 | 311 | 12.0 | 20.0 | 0.00 | 0.00 | 0.00 | 44 | 1003.4 |
| 20260509185517 | 58 | 315 | 6.0 | 18.0 | 0.00 | 0.00 | 0.00 | 45 | 1003.3 |
| 20260509185117 | 59 | 360 | 12.0 | 18.0 | 0.00 | 0.00 | 0.00 | 42 | 1003.5 |
| 20260509184522 | 59 | 323 | 10.0 | 18.0 | 0.00 | 0.00 | 0.00 | 42 | 1003.3 |
| 20260509184015 | 58 | 304 | 11.0 | 19.0 | 0.00 | 0.00 | 0.00 | 44 | 1003.3 |
| 20260509183515 | 58 | 321 | 12.0 | 19.0 | 0.00 | 0.00 | 0.00 | 43 | 1003.3 |
| 20260509183015 | 58 | 327 | 13.0 | 19.0 | 0.00 | 0.00 | 0.00 | 42 | 1003.3 |
| 20260509182515 | 58 | 325 | 11.0 | 18.0 | 0.00 | 0.00 | 0.00 | 44 | 1003.3 |
| 20260509182015 | 57 | 11 | 10.0 | 19.0 | 0.00 | 0.00 | 0.00 | 44 | 1003.4 |
| 20260509181514 | 58 | 5 | 9.0 | 19.0 | 0.00 | 0.00 | 0.00 | 44 | 1003.3 |
| 20260509181015 | 59 | 355 | 12.0 | 21.0 | 0.00 | 0.00 | 0.00 | 43 | 1003.3 |
| 20260509180515 | 58 | 302 | 12.0 | 20.0 | 0.00 | 0.00 | 0.00 | 44 | 1003.2 |
| 20260509180016 | 58 | 316 | 11.0 | 16.0 | 0.00 | 0.00 | 0.00 | 44 | 1003.2 |
| 20260509175513 | 57 | 355 | 8.0 | 18.0 | 0.00 | 0.00 | 0.00 | 45 | 1003.2 |
| 20260509174512 | 59 | 355 | 12.0 | 21.0 | 0.00 | 0.00 | 0.00 | 44 | 1003.2 |
| 20260509174012 | 58 | 325 | 9.0 | 20.0 | 0.00 | 0.00 | 0.00 | 45 | 1003.2 |
| 20260509173512 | 57 | 338 | 12.0 | 18.0 | 0.00 | 0.00 | 0.00 | 44 | 1003.1 |
| 20260509173011 | 57 | 360 | 12.0 | 19.0 | 0.00 | 0.00 | 0.00 | 45 | 1003.0 |
| 20260509172613 | 57 | 20 | 10.0 | 19.0 | 0.00 | 0.00 | 0.00 | 45 | 1003.1 |
| 20260509172010 | 57 | 355 | 10.0 | 18.0 | 0.00 | 0.00 | 0.00 | 44 | 1003.0 |
| 20260509171510 | 57 | 360 | 12.0 | 18.0 | 0.00 | 0.00 | 0.00 | 45 | 1003.0 |
| 20260509171009 | 57 | 338 | 12.0 | 18.0 | 0.00 | 0.00 | 0.00 | 44 | 1003.0 |
| 20260509170509 | 57 | 360 | 7.0 | 15.0 | 0.00 | 0.00 | 0.00 | 45 | 1002.9 |
| 20260509170010 | 57 | 31 | 11.0 | 18.0 | 0.00 | 0.00 | 0.00 | 45 | 1002.8 |
| 20260509165509 | 56 | 349 | 10.0 | 18.0 | 0.00 | 0.00 | 0.00 | 46 | 1002.8 |
| 20260509164510 | 55 | 317 | 9.0 | 14.0 | 0.00 | 0.00 | 0.00 | 47 | 1002.9 |
| 20260509164010 | 55 | 5 | 8.0 | 14.0 | 0.00 | 0.00 | 0.00 | 46 | 1003.0 |
| 20260509163511 | 56 | 20 | 8.0 | 15.0 | 0.00 | 0.00 | 0.00 | 47 | 1002.9 |
| 20260509163013 | 56 | 312 | 7.0 | 15.0 | 0.00 | 0.00 | 0.00 | 48 | 1002.9 |
| 20260509162510 | 56 | 360 | 3.0 | 15.0 | 0.00 | 0.00 | 0.00 | 49 | 1002.8 |
| 20260509162010 | 55 | 348 | 11.0 | 15.0 | 0.00 | 0.00 | 0.00 | 49 | 1002.9 |
| 20260509161510 | 55 | 360 | 7.0 | 16.0 | 0.00 | 0.00 | 0.00 | 48 | 1002.9 |
| 20260509161011 | 55 | 348 | 9.0 | 16.0 | 0.00 | 0.00 | 0.00 | 48 | 1002.8 |
| 20260509160509 | 55 | 344 | 3.0 | 13.0 | 0.00 | 0.00 | 0.00 | 48 | 1002.8 |
| 20260509160009 | 55 | 339 | 7.0 | 14.0 | 0.00 | 0.00 | 0.00 | 49 | 1002.8 |
| 20260509155509 | 54 | 342 | 7.0 | 14.0 | 0.00 | 0.00 | 0.00 | 50 | 1002.9 |
| 20260509154508 | 54 | 323 | 7.0 | 14.0 | 0.00 | 0.00 | 0.00 | 49 | 1002.7 |
| 20260509154008 | 54 | 305 | 10.0 | 14.0 | 0.00 | 0.00 | 0.00 | 49 | 1002.8 |
| 20260509153506 | 54 | 9 | 5.0 | 14.0 | 0.00 | 0.00 | 0.00 | 51 | 1002.7 |
| 20260509153008 | 54 | 5 | 11.0 | 14.0 | 0.00 | 0.00 | 0.00 | 50 | 1002.7 |
| 20260509152506 | 54 | 20 | 9.0 | 13.0 | 0.00 | 0.00 | 0.00 | 50 | 1002.6 |
| 20260509152008 | 53 | 334 | 6.0 | 14.0 | 0.00 | 0.00 | 0.00 | 52 | 1002.6 |
| 20260509151506 | 53 | 13 | 10.0 | 14.0 | 0.00 | 0.00 | 0.00 | 52 | 1002.7 |
| 20260509151005 | 52 | 11 | 7.0 | 13.0 | 0.00 | 0.00 | 0.00 | 52 | 1002.7 |
| 20260509150505 | 52 | 9 | 6.0 | 11.0 | 0.00 | 0.00 | 0.00 | 55 | 1002.7 |
| 20260509150005 | 51 | 355 | 6.0 | 11.0 | 0.00 | 0.00 | 0.00 | 55 | 1002.7 |
| 20260509145505 | 51 | 355 | 4.0 | 12.0 | 0.00 | 0.00 | 0.00 | 55 | 1002.6 |
| 20260509144519 | 51 | 331 | 7.0 | 10.0 | 0.00 | 0.00 | 0.00 | 59 | 1002.6 |
| 20260509144010 | 51 | 17 | 3.0 | 10.0 | 0.00 | 0.00 | 0.00 | 57 | 1002.5 |
| 20260509143505 | 51 | 24 | 7.0 | 10.0 | 0.00 | 0.00 | 0.00 | 56 | 1002.5 |
| 20260509143005 | 51 | 11 | 5.0 | 9.0 | 0.00 | 0.00 | 0.00 | 59 | 1002.4 |
| 20260509142508 | 50 | 331 | 4.0 | 8.0 | 0.00 | 0.00 | 0.00 | 61 | 1002.4 |
| 20260509142008 | 50 | 360 | 4.0 | 8.0 | 0.00 | 0.00 | 0.00 | 62 | 1002.5 |
| 20260509141506 | 49 | 355 | 4.0 | 8.0 | 0.00 | 0.00 | 0.00 | 63 | 1002.3 |
| 20260509141003 | 49 | 15 | 4.0 | 8.0 | 0.00 | 0.00 | 0.00 | 64 | 1002.4 |
| 20260509140503 | 49 | 11 | 5.0 | 10.0 | 0.00 | 0.00 | 0.00 | 66 | 1002.3 |
| 20260509140003 | 48 | 9 | 6.0 | 10.0 | 0.00 | 0.00 | 0.00 | 66 | 1002.3 |
| 20260509135502 | 49 | 355 | 7.0 | 10.0 | 0.00 | 0.00 | 0.00 | 66 | 1002.2 |
| 20260509135107 | 48 | 338 | 7.0 | 10.0 | 0.00 | 0.00 | 0.00 | 68 | 1002.1 |
| 20260509134502 | 48 | 360 | 6.0 | 9.0 | 0.00 | 0.00 | 0.00 | 66 | 1002.0 |
| 20260509134001 | 48 | 350 | 7.0 | 10.0 | 0.00 | 0.00 | 0.00 | 67 | 1002.0 |
| 20260509133501 | 47 | 350 | 7.0 | 11.0 | 0.00 | 0.00 | 0.00 | 68 | 1001.9 |
| 20260509133005 | 47 | 355 | 7.0 | 10.0 | 0.00 | 0.00 | 0.00 | 70 | 1001.9 |
| 20260509132502 | 46 | 360 | 7.0 | 10.0 | 0.00 | 0.00 | 0.00 | 72 | 1001.8 |
| 20260509132000 | 45 | 360 | 7.0 | 10.0 | 0.00 | 0.00 | 0.00 | 73 | 1001.8 |
| 20260509131600 | 45 | 360 | 7.0 | 10.0 | 0.00 | 0.00 | 0.00 | 73 | 1001.9 |
| 20260509131100 | 45 | 360 | 7.0 | 10.0 | 0.00 | 0.00 | 0.00 | 73 | 1001.7 |
| 20260509130601 | 44 | 360 | 7.0 | 10.0 | 0.00 | 0.00 | 0.00 | 75 | 1001.6 |
| 20260509125558 | 43 | 360 | 7.0 | 9.0 | 0.00 | 0.00 | 0.00 | 79 | 1001.5 |
| 20260509125200 | 42 | 360 | 7.0 | 10.0 | 0.00 | 0.00 | 0.00 | 80 | 1001.4 |
| 20260509124600 | 41 | 360 | 8.0 | 10.0 | 0.00 | 0.00 | 0.00 | 81 | 1001.4 |
| 20260509124057 | 41 | 360 | 7.0 | 8.0 | 0.00 | 0.00 | 0.00 | 83 | 1001.3 |
| 20260509123557 | 40 | 360 | 6.0 | 8.0 | 0.00 | 0.00 | 0.00 | 83 | 1001.2 |
| 20260509123127 | 40 | 360 | 4.0 | 6.0 | 0.00 | 0.00 | 0.00 | 84 | 1001.4 |
| 20260509122556 | 39 | 360 | 5.0 | 7.0 | 0.00 | 0.00 | 0.00 | 84 | 1001.2 |
| 20260509122056 | 39 | 360 | 5.0 | 7.0 | 0.00 | 0.00 | 0.00 | 82 | 1001.1 |
| 20260509121611 | 39 | 360 | 5.0 | 7.0 | 0.00 | 0.00 | 0.00 | 81 | 1001.1 |
| 20260509121054 | 40 | 360 | 2.0 | 6.0 | 0.00 | 0.00 | 0.00 | 79 | 1000.9 |
| 20260509120554 | 41 | 360 | 3.0 | 8.0 | 0.00 | 0.00 | 0.00 | 80 | 1000.8 |
| 20260509120112 | 40 | 360 | 6.0 | 8.0 | 0.00 | 0.00 | 0.00 | 81 | 1000.6 |
| 20260509115552 | 40 | 360 | 6.0 | 8.0 | 0.00 | 0.00 | 0.00 | 82 | 1000.4 |
| 20260509115052 | 39 | 360 | 7.0 | 9.0 | 0.00 | 0.00 | 0.00 | 84 | 1000.3 |
| 20260509114600 | 39 | 360 | 7.0 | 9.0 | 0.00 | 0.00 | 0.00 | 84 | 1000.2 |
| 20260509114053 | 38 | 360 | 7.0 | 10.0 | 0.00 | 0.00 | 0.00 | 84 | 1000.1 |
| 20260509113555 | 38 | 360 | 7.0 | 10.0 | 0.00 | 0.00 | 0.00 | 84 | 1000.1 |
| 20260509113055 | 37 | 360 | 8.0 | 10.0 | 0.00 | 0.00 | 0.00 | 84 | 1000.1 |
| 20260509112551 | 37 | 360 | 8.0 | 10.0 | 0.00 | 0.00 | 0.00 | 85 | 999.9 |
| 20260509112050 | 37 | 360 | 8.0 | 10.0 | 0.00 | 0.00 | 0.00 | 84 | 999.9 |
| 20260509111602 | 37 | 360 | 7.0 | 9.0 | 0.00 | 0.00 | 0.00 | 84 | 999.8 |
| 20260509111051 | 37 | 360 | 7.0 | 9.0 | 0.00 | 0.00 | 0.00 | 84 | 999.8 |
| 20260509110549 | 37 | 360 | 7.0 | 9.0 | 0.00 | 0.00 | 0.00 | 84 | 999.7 |
| 20260509110048 | 37 | 360 | 7.0 | 9.0 | 0.00 | 0.00 | 0.00 | 84 | 999.5 |
| 20260509105547 | 37 | 360 | 7.0 | 9.0 | 0.00 | 0.00 | 0.00 | 83 | 999.5 |
| 20260509105147 | 38 | 360 | 7.0 | 9.0 | 0.00 | 0.00 | 0.00 | 84 | 999.5 |
| 20260509104548 | 38 | 360 | 7.0 | 9.0 | 0.00 | 0.00 | 0.00 | 83 | 999.3 |
| 20260509104043 | 39 | 360 | 7.0 | 10.0 | 0.00 | 0.00 | 0.00 | 83 | 999.4 |
| 20260509103543 | 39 | 360 | 7.0 | 10.0 | 0.00 | 0.00 | 0.00 | 83 | 999.3 |
| 20260509103051 | 39 | 360 | 8.0 | 10.0 | 0.00 | 0.00 | 0.00 | 83 | 999.1 |
| 20260509102541 | 39 | 360 | 8.0 | 9.0 | 0.00 | 0.00 | 0.00 | 82 | 999.1 |
| 20260509102040 | 40 | 360 | 7.0 | 9.0 | 0.00 | 0.00 | 0.00 | 82 | 999.1 |
| 20260509101608 | 40 | 360 | 7.0 | 10.0 | 0.00 | 0.00 | 0.00 | 81 | 999.0 |
| 20260509101038 | 41 | 360 | 8.0 | 12.0 | 0.00 | 0.00 | 0.00 | 81 | 998.9 |
| 20260509100540 | 41 | 360 | 7.0 | 12.0 | 0.00 | 0.00 | 0.00 | 81 | 998.8 |
| 20260509100041 | 42 | 360 | 9.0 | 12.0 | 0.00 | 0.00 | 0.00 | 81 | 998.7 |
| 20260509095535 | 42 | 360 | 10.0 | 14.0 | 0.00 | 0.00 | 0.00 | 82 | 998.6 |
| 20260509095135 | 42 | 360 | 11.0 | 14.0 | 0.00 | 0.00 | 0.00 | 82 | 998.5 |
| 20260509094539 | 41 | 360 | 10.0 | 13.0 | 0.00 | 0.00 | 0.00 | 83 | 998.5 |
| 20260509094034 | 41 | 360 | 9.0 | 12.0 | 0.00 | 0.00 | 0.00 | 83 | 998.4 |
| 20260509093534 | 41 | 360 | 7.0 | 9.0 | 0.00 | 0.00 | 0.00 | 82 | 998.4 |
| 20260509093032 | 42 | 360 | 7.0 | 9.0 | 0.00 | 0.00 | 0.00 | 81 | 998.3 |
| 20260509092530 | 42 | 360 | 6.0 | 9.0 | 0.00 | 0.00 | 0.00 | 81 | 998.2 |
| 20260509092031 | 43 | 360 | 7.0 | 10.0 | 0.00 | 0.00 | 0.00 | 81 | 998.2 |
| 20260509091537 | 43 | 360 | 7.0 | 10.0 | 0.00 | 0.00 | 0.00 | 81 | 998.1 |
| 20260509091028 | 43 | 360 | 8.0 | 11.0 | 0.00 | 0.00 | 0.00 | 81 | 998.0 |
| 20260509090527 | 43 | 360 | 8.0 | 11.0 | 0.00 | 0.00 | 0.00 | 81 | 997.9 |
| 20260509090026 | 43 | 360 | 8.0 | 10.0 | 0.00 | 0.00 | 0.00 | 81 | 997.8 |
| 20260509085525 | 43 | 360 | 8.0 | 10.0 | 0.00 | 0.00 | 0.00 | 82 | 997.7 |
| 20260509085124 | 43 | 360 | 7.0 | 9.0 | 0.00 | 0.00 | 0.00 | 81 | 997.6 |
| 20260509084524 | 43 | 360 | 7.0 | 9.0 | 0.00 | 0.00 | 0.00 | 81 | 997.5 |
| 20260509084025 | 44 | 360 | 6.0 | 9.0 | 0.00 | 0.00 | 0.00 | 81 | 997.5 |
| 20260509083520 | 44 | 360 | 6.0 | 7.0 | 0.00 | 0.00 | 0.00 | 80 | 997.4 |
| 20260509083020 | 44 | 360 | 5.0 | 7.0 | 0.00 | 0.00 | 0.00 | 79 | 997.2 |
| 20260509082519 | 45 | 360 | 5.0 | 7.0 | 0.00 | 0.00 | 0.00 | 79 | 997.2 |
| 20260509082019 | 45 | 360 | 5.0 | 6.0 | 0.00 | 0.00 | 0.00 | 79 | 997.1 |
| 20260509081525 | 45 | 360 | 5.0 | 7.0 | 0.00 | 0.00 | 0.00 | 79 | 997.1 |
| 20260509081017 | 45 | 360 | 5.0 | 7.0 | 0.00 | 0.00 | 0.00 | 79 | 997.0 |
| 20260509080516 | 45 | 360 | 5.0 | 7.0 | 0.00 | 0.00 | 0.00 | 78 | 997.0 |
| 20260509080017 | 45 | 360 | 5.0 | 7.0 | 0.00 | 0.00 | 0.00 | 79 | 996.9 |
| 20260509075515 | 45 | 360 | 5.0 | 7.0 | 0.00 | 0.00 | 0.00 | 78 | 997.0 |
| 20260509075115 | 46 | 360 | 5.0 | 6.0 | 0.00 | 0.00 | 0.00 | 78 | 996.8 |
| 20260509074519 | 46 | 360 | 5.0 | 6.0 | 0.00 | 0.00 | 0.00 | 78 | 996.7 |
| 20260509074013 | 46 | 360 | 4.0 | 6.0 | 0.00 | 0.00 | 0.00 | 78 | 996.6 |
| 20260509073512 | 47 | 360 | 4.0 | 7.0 | 0.00 | 0.00 | 0.00 | 78 | 996.6 |
| 20260509073012 | 47 | 360 | 5.0 | 7.0 | 0.00 | 0.00 | 0.00 | 78 | 996.5 |
| 20260509072511 | 47 | 360 | 5.0 | 8.0 | 0.00 | 0.00 | 0.00 | 78 | 996.4 |
| 20260509072012 | 47 | 360 | 6.0 | 10.0 | 0.00 | 0.00 | 0.00 | 78 | 996.3 |
| 20260509071509 | 47 | 360 | 6.0 | 10.0 | 0.00 | 0.00 | 0.00 | 78 | 996.2 |
| 20260509071008 | 48 | 360 | 7.0 | 10.0 | 0.00 | 0.00 | 0.00 | 78 | 996.3 |
| 20260509070507 | 48 | 360 | 8.0 | 11.0 | 0.00 | 0.00 | 0.00 | 78 | 996.3 |
| 20260509070010 | 48 | 360 | 8.0 | 11.0 | 0.00 | 0.00 | 0.00 | 77 | 996.2 |
| 20260509065505 | 49 | 360 | 9.0 | 13.0 | 0.00 | 0.00 | 0.00 | 77 | 996.1 |
| 20260509065104 | 49 | 360 | 9.0 | 13.0 | 0.00 | 0.00 | 0.00 | 76 | 996.1 |
| 20260509064504 | 50 | 360 | 8.0 | 13.0 | 0.00 | 0.00 | 0.00 | 76 | 995.9 |
| 20260509064006 | 50 | 360 | 10.0 | 13.0 | 0.00 | 0.00 | 0.00 | 75 | 996.0 |
| 20260509063502 | 50 | 360 | 8.0 | 15.0 | 0.00 | 0.00 | 0.00 | 75 | 996.0 |
| 20260509063002 | 50 | 360 | 8.0 | 15.0 | 0.00 | 0.00 | 0.00 | 74 | 996.0 |
| 20260509062601 | 50 | 360 | 7.0 | 12.0 | 0.00 | 0.00 | 0.00 | 74 | 995.8 |
| 20260509062100 | 50 | 360 | 6.0 | 7.0 | 0.00 | 0.00 | 0.00 | 73 | 995.9 |
| 20260509061601 | 50 | 360 | 6.0 | 7.0 | 0.00 | 0.00 | 0.00 | 72 | 995.8 |
| 20260509061101 | 50 | 360 | 5.0 | 7.0 | 0.00 | 0.00 | 0.00 | 70 | 995.7 |
| 20260509060557 | 51 | 360 | 4.0 | 6.0 | 0.00 | 0.00 | 0.00 | 70 | 995.6 |
| 20260509060055 | 51 | 360 | 1.0 | 4.0 | 0.00 | 0.00 | 0.00 | 69 | 995.4 |
| 20260509055554 | 51 | 360 | 1.0 | 3.0 | 0.00 | 0.00 | 0.00 | 69 | 995.3 |
| 20260509055057 | 51 | 360 | 2.0 | 5.0 | 0.00 | 0.00 | 0.00 | 68 | 995.2 |
| 20260509054052 | 52 | 360 | 2.0 | 6.0 | 0.00 | 0.00 | 0.00 | 68 | 995.0 |
| 20260509053550 | 52 | 360 | 4.0 | 8.0 | 0.00 | 0.00 | 0.00 | 68 | 994.9 |
| 20260509053055 | 52 | 360 | 5.0 | 8.0 | 0.00 | 0.00 | 0.00 | 67 | 994.9 |
| 20260509052551 | 52 | 360 | 5.0 | 9.0 | 0.00 | 0.00 | 0.00 | 67 | 994.8 |
| 20260509052049 | 52 | 360 | 6.0 | 10.0 | 0.00 | 0.00 | 0.00 | 66 | 994.8 |
| 20260509051551 | 52 | 360 | 6.0 | 10.0 | 0.00 | 0.00 | 0.00 | 66 | 994.9 |
| 20260509051049 | 53 | 360 | 7.0 | 10.0 | 0.00 | 0.00 | 0.00 | 65 | 994.9 |
| 20260509050548 | 53 | 360 | 5.0 | 10.0 | 0.00 | 0.00 | 0.00 | 65 | 994.8 |
| 20260509050048 | 53 | 360 | 5.0 | 10.0 | 0.00 | 0.00 | 0.00 | 65 | 994.8 |
| 20260509045547 | 53 | 360 | 4.0 | 9.0 | 0.00 | 0.00 | 0.00 | 65 | 994.9 |
| 20260509045046 | 53 | 360 | 5.0 | 9.0 | 0.00 | 0.00 | 0.00 | 64 | 995.0 |
| 20260509044046 | 53 | 360 | 5.0 | 12.0 | 0.00 | 0.00 | 0.00 | 64 | 994.7 |
| 20260509043548 | 54 | 360 | 7.0 | 12.0 | 0.00 | 0.00 | 0.00 | 63 | 994.5 |
| 20260509043046 | 54 | 360 | 9.0 | 16.0 | 0.00 | 0.00 | 0.00 | 63 | 994.4 |
| 20260509042545 | 54 | 360 | 10.0 | 19.0 | 0.00 | 0.00 | 0.00 | 63 | 994.4 |
| 20260509042045 | 54 | 360 | 12.0 | 19.0 | 0.00 | 0.00 | 0.00 | 63 | 994.2 |
| 20260509041610 | 54 | 360 | 10.0 | 21.0 | 0.00 | 0.00 | 0.00 | 64 | 994.2 |
| 20260509041043 | 54 | 360 | 14.0 | 21.0 | 0.00 | 0.00 | 0.00 | 66 | 994.0 |
| 20260509040543 | 54 | 360 | 11.0 | 20.0 | 0.00 | 0.00 | 0.00 | 67 | 993.9 |
| 20260509040044 | 54 | 360 | 12.0 | 20.0 | 0.00 | 0.00 | 0.00 | 68 | 993.9 |
| 20260509035541 | 54 | 360 | 13.0 | 20.0 | 0.00 | 0.00 | 0.00 | 67 | 994.3 |
| 20260509035040 | 55 | 360 | 13.0 | 20.0 | 0.00 | 0.00 | 0.00 | 66 | 993.9 |
| 20260509034041 | 55 | 25 | 13.0 | 20.0 | 0.00 | 0.00 | 0.00 | 62 | 994.1 |
| 20260509033538 | 56 | 13 | 15.0 | 20.0 | 0.00 | 0.00 | 0.00 | 61 | 994.1 |
| 20260509033038 | 57 | 14 | 12.0 | 16.0 | 0.00 | 0.00 | 0.00 | 60 | 993.9 |
| 20260509032536 | 57 | 29 | 11.0 | 16.0 | 0.00 | 0.00 | 0.00 | 58 | 994.0 |
| 20260509032038 | 57 | 5 | 9.0 | 13.0 | 0.00 | 0.00 | 0.00 | 59 | 994.3 |
| 20260509031537 | 57 | 360 | 7.0 | 11.0 | 0.00 | 0.00 | 0.00 | 59 | 994.2 |
| 20260509031134 | 57 | 360 | 7.0 | 11.0 | 0.00 | 0.00 | 0.00 | 59 | 994.1 |
| 20260509030532 | 57 | 360 | 7.0 | 11.0 | 0.00 | 0.00 | 0.00 | 58 | 994.2 |
| 20260509030034 | 57 | 360 | 9.0 | 15.0 | 0.00 | 0.00 | 0.00 | 58 | 993.9 |
| 20260509025530 | 57 | 360 | 10.0 | 12.0 | 0.00 | 0.00 | 0.00 | 57 | 993.9 |
| 20260509025031 | 57 | 360 | 10.0 | 12.0 | 0.00 | 0.00 | 0.00 | 57 | 993.7 |
| 20260509024030 | 58 | 360 | 8.0 | 12.0 | 0.00 | 0.00 | 0.00 | 57 | 993.5 |
| 20260509023530 | 58 | 360 | 9.0 | 14.0 | 0.00 | 0.00 | 0.00 | 57 | 993.4 |
| 20260509023030 | 58 | 360 | 10.0 | 15.0 | 0.00 | 0.00 | 0.00 | 57 | 993.2 |
| 20260509022528 | 58 | 360 | 12.0 | 15.0 | 0.00 | 0.00 | 0.00 | 56 | 993.2 |
| 20260509022027 | 58 | 5 | 12.0 | 16.0 | 0.00 | 0.00 | 0.00 | 56 | 993.1 |
| 20260509021533 | 59 | 19 | 12.0 | 18.0 | 0.00 | 0.00 | 0.00 | 55 | 993.0 |
| 20260509021024 | 59 | 355 | 13.0 | 18.0 | 0.00 | 0.00 | 0.00 | 54 | 993.1 |
| 20260509020524 | 59 | 10 | 12.0 | 18.0 | 0.00 | 0.00 | 0.00 | 55 | 993.0 |
| 20260509020040 | 59 | 9 | 11.0 | 18.0 | 0.00 | 0.00 | 0.00 | 55 | 992.9 |
| 20260509015523 | 60 | 5 | 11.0 | 19.0 | 0.00 | 0.00 | 0.00 | 55 | 993.1 |
| 20260509015026 | 60 | 351 | 13.0 | 18.0 | 0.00 | 0.00 | 0.00 | 54 | 993.2 |
| 20260509014022 | 60 | 348 | 10.0 | 19.0 | 0.00 | 0.00 | 0.00 | 55 | 993.0 |
| 20260509013522 | 60 | 360 | 12.0 | 19.0 | 0.00 | 0.00 | 0.00 | 55 | 992.9 |
| 20260509013035 | 60 | 355 | 13.0 | 18.0 | 0.00 | 0.00 | 0.00 | 55 | 992.7 |
| 20260509012523 | 60 | 5 | 12.0 | 18.0 | 0.00 | 0.00 | 0.00 | 54 | 992.1 |
| 20260509012018 | 61 | 5 | 13.0 | 18.0 | 0.00 | 0.00 | 0.00 | 52 | 991.8 |
| 20260509011517 | 62 | 5 | 12.0 | 16.0 | 0.00 | 0.00 | 0.00 | 50 | 991.6 |
| 20260509011017 | 63 | 28 | 12.0 | 15.0 | 0.00 | 0.00 | 0.00 | 44 | 991.5 |
| 20260509010517 | 64 | 5 | 9.0 | 12.0 | 0.00 | 0.00 | 0.00 | 41 | 991.3 |
| 20260509010014 | 64 | 360 | 6.0 | 9.0 | 0.00 | 0.00 | 0.00 | 41 | 991.4 |
| 20260509005515 | 64 | 5 | 5.0 | 16.0 | 0.00 | 0.00 | 0.00 | 42 | 991.6 |
| 20260509005113 | 65 | 13 | 9.0 | 16.0 | 0.00 | 0.00 | 0.00 | 44 | 991.7 |
| 20260509004010 | 66 | 338 | 15.0 | 32.0 | 0.00 | 0.00 | 0.00 | 38 | 992.3 |
| 20260509003509 | 67 | 5 | 23.0 | 32.0 | 0.00 | 0.00 | 0.00 | 37 | 992.2 |
| 20260509003008 | 68 | 311 | 13.0 | 19.0 | 0.00 | 0.00 | 0.00 | 31 | 992.1 |
| 20260509002507 | 68 | 318 | 12.0 | 18.0 | 0.00 | 0.00 | 0.00 | 31 | 991.8 |
| 20260509002007 | 68 | 313 | 11.0 | 15.0 | 0.00 | 0.00 | 0.00 | 31 | 991.7 |
| 20260509001507 | 69 | 283 | 8.0 | 11.0 | 0.00 | 0.00 | 0.00 | 31 | 991.6 |
| 20260509001007 | 69 | 302 | 8.0 | 12.0 | 0.00 | 0.00 | 0.00 | 31 | 991.3 |
| 20260509000508 | 69 | 294 | 8.0 | 12.0 | 0.00 | 0.00 | 0.00 | 31 | 991.4 |
| 20260509000006 | 70 | 290 | 8.0 | 14.0 | 0.00 | 0.00 | 0.00 | 30 | 991.5 |
| 20260508235506 | 70 | 269 | 10.0 | 23.0 | 0.00 | 0.00 | 0.00 | 29 | 991.7 |
| 20260508235005 | 72 | 272 | 18.0 | 25.0 | 0.00 | 0.00 | 0.00 | 29 | 991.8 |
| 20260508234004 | 72 | 284 | 14.0 | 21.0 | 0.00 | 0.00 | 0.00 | 29 | 992.1 |
| 20260508233504 | 71 | 294 | 14.0 | 21.0 | 0.00 | 0.00 | 0.00 | 30 | 992.0 |
| 20260508233004 | 70 | 300 | 12.0 | 20.0 | 0.00 | 0.00 | 0.00 | 29 | 992.0 |
| 20260508232503 | 71 | 306 | 10.0 | 18.0 | 0.00 | 0.00 | 0.00 | 29 | 992.1 |
| 20260508232003 | 71 | 305 | 12.0 | 20.0 | 0.00 | 0.00 | 0.00 | 29 | 992.1 |
| 20260508231503 | 71 | 304 | 12.0 | 18.0 | 0.00 | 0.00 | 0.00 | 30 | 992.3 |
| 20260508231001 | 70 | 335 | 9.0 | 15.0 | 0.00 | 0.00 | 0.00 | 31 | 992.5 |
| 20260508230501 | 69 | 327 | 10.0 | 19.0 | 0.00 | 0.00 | 0.00 | 32 | 992.6 |
| 20260508230105 | 69 | 329 | 12.0 | 21.0 | 0.00 | 0.00 | 0.00 | 31 | 992.7 |
| 20260508225559 | 69 | 340 | 16.0 | 21.0 | 0.00 | 0.00 | 0.00 | 31 | 992.8 |
| 20260508225059 | 69 | 329 | 15.0 | 22.0 | 0.00 | 0.00 | 0.00 | 30 | 992.9 |
| 20260508224057 | 70 | 293 | 17.0 | 26.0 | 0.00 | 0.00 | 0.00 | 29 | 993.0 |
| 20260508223601 | 70 | 311 | 20.0 | 29.0 | 0.00 | 0.00 | 0.00 | 28 | 992.9 |
| 20260508223055 | 71 | 300 | 21.0 | 29.0 | 0.00 | 0.00 | 0.00 | 27 | 992.9 |
| 20260508222555 | 71 | 309 | 15.0 | 24.0 | 0.00 | 0.00 | 0.00 | 25 | 993.0 |
| 20260508222053 | 72 | 289 | 12.0 | 23.0 | 0.00 | 0.00 | 0.00 | 25 | 993.0 |
| 20260508221554 | 71 | 264 | 16.0 | 24.0 | 0.00 | 0.00 | 0.00 | 26 | 993.2 |
| 20260508221053 | 72 | 289 | 21.0 | 29.0 | 0.00 | 0.00 | 0.00 | 26 | 993.2 |
| 20260508220553 | 73 | 284 | 21.0 | 32.0 | 0.00 | 0.00 | 0.00 | 26 | 993.3 |
| 20260508220052 | 72 | 296 | 23.0 | 32.0 | 0.00 | 0.00 | 0.00 | 26 | 993.1 |
| 20260508215551 | 72 | 286 | 17.0 | 29.0 | 0.00 | 0.00 | 0.00 | 25 | 993.3 |
| 20260508215054 | 72 | 306 | 17.0 | 29.0 | 0.00 | 0.00 | 0.00 | 25 | 993.4 |
| 20260508214050 | 72 | 315 | 13.0 | 25.0 | 0.00 | 0.00 | 0.00 | 24 | 993.4 |
| 20260508213550 | 72 | 281 | 20.0 | 26.0 | 0.00 | 0.00 | 0.00 | 23 | 993.5 |
| 20260508213049 | 72 | 311 | 17.0 | 29.0 | 0.00 | 0.00 | 0.00 | 23 | 993.6 |
| 20260508212549 | 71 | 279 | 19.0 | 28.0 | 0.00 | 0.00 | 0.00 | 24 | 993.7 |
| 20260508212048 | 71 | 266 | 20.0 | 31.0 | 0.00 | 0.00 | 0.00 | 25 | 993.8 |
| 20260508211547 | 71 | 268 | 22.0 | 31.0 | 0.00 | 0.00 | 0.00 | 24 | 993.8 |
| 20260508211051 | 71 | 283 | 12.0 | 26.0 | 0.00 | 0.00 | 0.00 | 26 | 993.8 |
| 20260508210546 | 72 | 265 | 20.0 | 26.0 | 0.00 | 0.00 | 0.00 | 25 | 994.0 |
| 20260508210047 | 72 | 267 | 15.0 | 28.0 | 0.00 | 0.00 | 0.00 | 25 | 994.0 |
| 20260508205544 | 72 | 269 | 19.0 | 28.0 | 0.00 | 0.00 | 0.00 | 25 | 994.0 |
| 20260508205043 | 71 | 278 | 18.0 | 25.0 | 0.00 | 0.00 | 0.00 | 25 | 994.2 |
| 20260508204043 | 71 | 257 | 20.0 | 25.0 | 0.00 | 0.00 | 0.00 | 26 | 994.3 |